TimeCST,TemperatureF,Dew PointF,Humidity,Sea Level PressureIn,VisibilityMPH,Wind Direction,Wind SpeedMPH,Gust SpeedMPH,PrecipitationIn,Events,Conditions,WindDirDegrees,DateUTC
12:13 AM,8.6,3.2,79,30.13,10.0,SW,5.8,-,N/A,,Clear,230,2012-12-30 06:13:00
12:53 AM,6.8,3.2,85,30.13,10.0,SW,3.5,-,N/A,,Clear,230,2012-12-30 06:53:00
1:13 AM,6.8,1.4,79,30.12,10.0,SW,4.6,-,N/A,,Clear,220,2012-12-30 07:13:00
1:33 AM,6.8,1.4,79,30.12,10.0,WSW,4.6,-,N/A,,Clear,240,2012-12-30 07:33:00
1:53 AM,8.6,3.2,79,30.13,10.0,SSW,5.8,-,N/A,,Clear,210,2012-12-30 07:53:00
2:13 AM,8.6,5.0,85,30.12,10.0,SW,5.8,-,N/A,,Clear,220,2012-12-30 08:13:00
2:33 AM,10.4,5.0,79,30.13,10.0,SW,4.6,-,N/A,,Clear,230,2012-12-30 08:33:00
2:53 AM,10.4,6.8,85,30.14,10.0,SW,4.6,-,N/A,,Clear,220,2012-12-30 08:53:00
3:13 AM,10.4,6.8,85,30.14,10.0,SW,4.6,-,N/A,,Clear,220,2012-12-30 09:13:00
3:33 AM,10.4,5.0,79,30.13,10.0,South,3.5,-,N/A,,Clear,190,2012-12-30 09:33:00
3:53 AM,8.6,3.2,79,30.13,10.0,South,4.6,-,N/A,,Clear,190,2012-12-30 09:53:00
4:13 AM,8.6,3.2,79,30.13,10.0,SSW,4.6,-,N/A,,Clear,210,2012-12-30 10:13:00
4:32 AM,6.8,3.2,85,30.13,10.0,SSW,4.6,-,N/A,,Clear,210,2012-12-30 10:32:00
4:53 AM,6.8,1.4,79,30.12,10.0,South,3.5,-,N/A,,Clear,190,2012-12-30 10:53:00
5:13 AM,6.8,3.2,85,30.12,10.0,Calm,Calm,-,N/A,,Clear,0,2012-12-30 11:13:00
5:32 AM,8.6,3.2,79,30.10,10.0,Calm,Calm,-,N/A,,Clear,0,2012-12-30 11:32:00
5:53 AM,6.8,1.4,79,30.11,10.0,Calm,Calm,-,N/A,,Clear,0,2012-12-30 11:53:00
6:13 AM,6.8,3.2,85,30.10,10.0,South,3.5,-,N/A,,Clear,190,2012-12-30 12:13:00
6:32 AM,8.6,3.2,79,30.11,10.0,South,8.1,-,N/A,,Clear,190,2012-12-30 12:32:00
6:53 AM,8.6,3.2,79,30.11,10.0,South,8.1,-,N/A,,Clear,190,2012-12-30 12:53:00
7:13 AM,8.6,3.2,79,30.10,10.0,South,9.2,-,N/A,,Clear,190,2012-12-30 13:13:00
7:33 AM,8.6,3.2,79,30.10,10.0,South,9.2,-,N/A,,Clear,190,2012-12-30 13:33:00
7:53 AM,8.6,5.0,85,30.10,10.0,SSW,9.2,-,N/A,,Clear,200,2012-12-30 13:53:00
8:13 AM,8.6,3.2,79,30.10,10.0,SSW,8.1,-,N/A,,Clear,200,2012-12-30 14:13:00
8:33 AM,10.4,5.0,79,30.10,10.0,South,9.2,-,N/A,,Clear,190,2012-12-30 14:33:00
8:53 AM,12.2,10.4,92,30.10,10.0,SSW,9.2,-,N/A,,Clear,200,2012-12-30 14:53:00
9:13 AM,14.0,10.4,86,30.09,10.0,South,9.2,-,N/A,,Clear,190,2012-12-30 15:13:00
9:33 AM,14.0,10.4,86,30.08,10.0,South,9.2,-,N/A,,Clear,180,2012-12-30 15:33:00
9:53 AM,15.8,12.2,86,30.08,10.0,South,9.2,-,N/A,,Clear,180,2012-12-30 15:53:00
10:13 AM,17.6,14.0,86,30.07,10.0,South,10.4,-,N/A,,Clear,180,2012-12-30 16:13:00
10:33 AM,17.6,14.0,86,30.06,10.0,South,8.1,-,N/A,,Clear,180,2012-12-30 16:33:00
10:53 AM,19.4,15.8,86,30.04,10.0,South,10.4,-,N/A,,Clear,180,2012-12-30 16:53:00
11:13 AM,21.2,17.6,86,30.03,10.0,South,10.4,-,N/A,,Clear,180,2012-12-30 17:13:00
11:33 AM,23.0,17.6,80,30.00,10.0,South,10.4,-,N/A,,Clear,170,2012-12-30 17:33:00
11:53 AM,26.6,17.6,69,29.98,10.0,South,9.2,-,N/A,,Clear,170,2012-12-30 17:53:00
12:13 PM,30.2,17.6,60,29.95,10.0,South,11.5,-,N/A,,Clear,170,2012-12-30 18:13:00
12:33 PM,30.2,19.4,64,29.94,10.0,South,15.0,-,N/A,,Clear,170,2012-12-30 18:33:00
12:53 PM,30.2,17.6,60,29.92,10.0,South,17.3,23.0,N/A,,Clear,170,2012-12-30 18:53:00
1:13 PM,28.4,17.6,64,29.92,10.0,South,15.0,25.3,N/A,,Clear,180,2012-12-30 19:13:00
1:33 PM,28.4,19.4,69,29.90,10.0,South,16.1,-,N/A,,Clear,180,2012-12-30 19:33:00
1:53 PM,28.4,19.4,69,29.88,10.0,South,16.1,-,N/A,,Clear,180,2012-12-30 19:53:00
2:13 PM,28.4,19.4,69,29.87,10.0,South,13.8,-,N/A,,Clear,170,2012-12-30 20:13:00
2:33 PM,30.2,19.4,64,29.86,10.0,South,16.1,-,N/A,,Clear,180,2012-12-30 20:33:00
2:53 PM,30.2,19.4,64,29.86,10.0,South,15.0,20.7,N/A,,Clear,170,2012-12-30 20:53:00
3:13 PM,30.2,21.2,69,29.87,10.0,South,13.8,-,N/A,,Clear,170,2012-12-30 21:13:00
3:33 PM,30.2,21.2,69,29.87,10.0,South,11.5,-,N/A,,Clear,170,2012-12-30 21:33:00
3:53 PM,30.2,21.2,69,29.87,10.0,South,13.8,-,N/A,,Clear,190,2012-12-30 21:53:00
4:12 PM,28.4,21.2,74,29.87,10.0,SSW,10.4,-,N/A,,Clear,200,2012-12-30 22:12:00
4:38 PM,30.2,21.2,69,29.87,10.0,SW,12.7,-,N/A,,Clear,220,2012-12-30 22:38:00
4:58 PM,30.2,21.2,69,29.87,10.0,SW,11.5,-,N/A,,Clear,220,2012-12-30 22:58:00
5:12 PM,28.4,21.2,74,29.87,10.0,SW,13.8,-,N/A,,Clear,220,2012-12-30 23:12:00
5:33 PM,28.4,21.2,74,29.88,10.0,SW,15.0,-,N/A,,Clear,230,2012-12-30 23:33:00
5:52 PM,28.4,21.2,74,29.88,10.0,SW,12.7,-,N/A,,Clear,230,2012-12-30 23:52:00
6:13 PM,28.4,21.2,74,29.89,10.0,WSW,12.7,-,N/A,,Clear,250,2012-12-31 00:13:00
6:33 PM,26.6,19.4,74,29.89,10.0,WSW,11.5,-,N/A,,Clear,250,2012-12-31 00:33:00
6:52 PM,26.6,19.4,74,29.90,10.0,West,11.5,-,N/A,,Clear,260,2012-12-31 00:52:00
7:13 PM,24.8,19.4,80,29.91,10.0,West,13.8,-,N/A,,Clear,270,2012-12-31 01:13:00
7:33 PM,23.0,17.6,80,29.91,10.0,West,13.8,18.4,N/A,,Clear,270,2012-12-31 01:33:00
7:52 PM,23.0,17.6,80,29.92,10.0,West,12.7,-,N/A,,Clear,270,2012-12-31 01:52:00
8:13 PM,21.2,14.0,74,29.92,10.0,West,12.7,-,N/A,,Clear,280,2012-12-31 02:13:00
8:33 PM,19.4,14.0,80,29.93,10.0,West,11.5,-,N/A,,Clear,280,2012-12-31 02:33:00
8:52 PM,19.4,14.0,80,29.94,10.0,WNW,9.2,-,N/A,,Clear,290,2012-12-31 02:52:00
9:13 PM,19.4,12.2,74,29.95,10.0,West,11.5,16.1,N/A,,Clear,280,2012-12-31 03:13:00
9:52 PM,19.4,12.2,74,29.97,10.0,WNW,11.5,-,N/A,,Clear,290,2012-12-31 03:52:00
10:13 PM,17.6,10.4,73,29.97,10.0,NW,13.8,-,N/A,,Clear,310,2012-12-31 04:13:00
10:33 PM,17.6,12.2,79,29.98,10.0,NW,13.8,-,N/A,,Clear,310,2012-12-31 04:33:00
10:52 PM,17.6,12.2,79,29.99,10.0,NW,15.0,-,N/A,,Clear,310,2012-12-31 04:52:00
11:13 PM,19.4,12.2,74,30.01,10.0,NW,15.0,18.4,N/A,,Scattered Clouds,310,2012-12-31 05:13:00
11:33 PM,19.4,14.0,80,30.03,10.0,NW,11.5,-,N/A,,Overcast,310,2012-12-31 05:33:00
11:52 PM,21.2,15.8,80,30.03,10.0,NW,21.9,26.5,N/A,,Overcast,320,2012-12-31 05:52:00